Каменское

Украина / Днепропетровская область     48˚31′00″N   34˚36′48″E
темп.,
°C
ветер,
м/с
пор.,
м/с
влажн.,
%
обл.,
%
осадки,
мм/ч
давл.,
гПа
погр.,
м
6 декабря, вс
вс623:00−4˚в512520 0.0 1033381
02:00−4˚в512510 0.0 1034380
05:00−5˚в612510 0.0 1034379
08:00−5˚в612520 0.0 1034410
11:00−2˚в611430 0.0 1034519
14:00−1˚в711480 0.0 1033607
17:00−4˚всв612610 0.0 1033481
20:00−5˚в612640 0.0 1034504
7 декабря, пн
пн723:00−6˚в612680 0.0 1034529
02:00−7˚в612660 0.0 1034513
05:00−7˚в613660 0.0 1033510
08:00−7˚в713640 0.0 1033620
11:00−4˚в813530 0.0 1032735
14:00−1˚в712475 0.0 1031772
17:00−3˚в614480 0.0 1031580
20:00−4˚в714530 0.0 1031586
8 декабря, вт
вт823:00−5˚в614610 0.0 1030549
02:00−5˚в714640 0.0 1030562
05:00−6˚в714660 0.0 1029599
08:00−6˚в6146918 0.0 1029689
11:00−2˚в7126171 0.0 1028767
14:00в7115940 0.0 1027803
17:00−2˚в512690 0.0 1027439
20:00−3˚в613630 0.0 1028547
9 декабря, ср
ср923:00−4˚в512650 0.0 1027542
02:00−4˚в512710 0.0 1028516
05:00−4˚в6127250 0.0 1027504
08:00−4˚в6127659 0.0 1028495
11:00−2˚вюв6106868 0.0 1028540
14:00в696870 0.0 1027614
17:00вюв6117298 0.0 1027536
20:00−1˚вюв6127699 0.0 1028508
10 декабря, чт
чт1023:00−2˚вюв6118094 0.0 1028459
02:00−1˚вюв6108695 0.0 1028514
05:00−1˚вюв5979100 0.0 1028384
08:00−2˚вюв5983100 0.0 1028356
11:00вюв697691 0.0 1028457
14:00+2˚вюв696952 0.0 1028529
17:00вюв411807 0.0 1028363
20:00−1˚вюв512789 0.0 1028411